ONEWEB-0300 (49089 NORAD) Tracking and Keplerian Element Data

This shows tracking and keplerian element data for the satellite.

Feedback or suggestion? Click here.




ElementValue
Catalog49089
NameONEWEB-0300
Epoch Orbit561
Epoch Day262.16668981
Epoch Year2021
RAAN356.4172
Inclination87.4512
Eccentricity0.0018663
Argument of Perigee197.0479
Mean Anonmoly230.6874
Mean Motion15.19895374
Decay Rate-0.00851646
L11 49089U 21075Q 21262.16668981 -.00851646 00000-0 -42888-1 0 9996
L22 49089 87.4512 356.4172 0018663 197.0479 230.6874 15.19895374 5612

Live tracking and technical data element details for ONEWEB-0300 (NORAD 49089). ONEWEB-0300 can be tracked NOW for your location showing map with azimuth and elevation plus other details from your city location.

Track the satellite on the map from your city or location and see movement details for azimuth, elevation, latitude, longitude, range, height, and movement on the map or in text.







IsCatalogInMostPopularTable: catalog: 49089, numindb: 6
Update: records affected: 1



GetName: 49089 ONEWEB-0300

Hit Count: updated at: Fri, 24 Sep 2021 17:41:52 GMT